Location: Pine Mountain Observatory
(43.7910°N, 120.9377°W)
Time: 10:34:06
(UTC-07:00)

Cosmos 1867 - Visible Passes

Search period start: 30 June 2016 00:00
Search period end: 10 July 2016 00:00
Orbit: 773 x 803 km, 65.0° (Epoch: 29 June)

Date Brightness Start Highest point End Pass type
(mag) Time Alt. Az. Time Alt. Az. Time Alt. Az.
30 Jun 4.4 00:49:06 10° NNW 00:54:23 46° NE 00:57:23 24° ESE visible
30 Jun 4.4 02:33:04 10° NW 02:37:48 30° WSW 02:38:00 30° WSW visible
30 Jun 6.3 22:35:48 10° N 22:37:21 11° NNE 22:38:54 10° NE visible
01 Jul 4.8 00:17:34 10° NNW 00:22:38 36° NE 00:25:59 19° ESE visible
01 Jul 4.0 02:01:10 10° NW 02:06:17 41° WSW 02:06:37 40° SW visible
01 Jul 5.2 23:46:04 10° NNW 23:50:49 29° NE 23:54:42 14° E visible
02 Jul 3.7 01:29:22 10° NW 01:34:44 55° WSW 01:35:19 53° SW visible
02 Jul 5.5 23:14:36 10° NNW 23:18:58 23° NE 23:23:18 10° E visible
03 Jul 3.5 00:57:39 10° NW 01:03:08 75° WSW 01:04:06 59° S visible
03 Jul 5.7 22:43:11 10° N 22:47:04 19° NE 22:50:57 10° E visible
04 Jul 3.5 00:25:59 10° NNW 00:31:30 83° NE 00:32:57 51° SE visible
04 Jul 5.5 02:11:19 10° WNW 02:13:35 15° W 02:13:35 15° W visible
04 Jul 5.9 22:11:47 10° N 22:15:08 16° NNE 22:18:27 10° ENE visible
04 Jul 3.8 23:54:22 10° NNW 23:59:50 64° NE 00:01:51 38° ESE visible
05 Jul 5.1 01:38:56 10° WNW 01:42:29 21° WSW 01:42:29 21° WSW visible
05 Jul 5.9 21:40:29 10° N 21:43:09 13° NNE 21:45:49 10° ENE visible
05 Jul 4.2 23:22:47 10° NNW 23:28:07 49° NE 23:30:47 27° ESE visible
06 Jul 4.7 01:06:51 10° NW 01:11:26 28° WSW 01:11:26 28° WSW visible
06 Jul 4.6 22:51:15 10° NNW 22:56:22 38° NE 22:59:48 19° ESE visible
07 Jul 4.2 00:34:56 10° NW 00:39:58 38° WSW 00:40:26 38° SW visible
07 Jul 4.9 22:19:44 10° NNW 22:24:34 30° NE 22:28:50 12° E visible
08 Jul 3.9 00:03:06 10° NW 00:08:25 52° WSW 00:09:29 45° SSW visible
08 Jul 5.2 21:48:16 10° NNW 21:52:43 24° NE 21:57:08 10° E visible
08 Jul 3.6 23:31:22 10° NW 23:36:50 70° WSW 23:38:35 43° S visible
09 Jul 5.5 21:16:50 10° NNW 21:20:50 20° NE 21:24:48 10° E visible
09 Jul 3.5 22:59:41 10° NW 23:05:13 88° NE 23:07:43 34° SE visible
